| time (UTC) | temp F | wind direction | speed MPH | gust MPH | rain 1hr in | rain 24hr in | rain mn in | humidity % | barometer mb |
| 20260507025512 | 61 | 249 | 4.0 | 12.0 | 0.00 | 0.00 | 0.00 | 87 | 1016.5 |
| 20260507025012 | 61 | 265 | 4.0 | 12.0 | 0.00 | 0.00 | 0.00 | 86 | 1016.5 |
| 20260507024532 | 61 | 257 | 4.0 | 11.0 | 0.00 | 0.00 | 0.00 | 86 | 1016.4 |
| 20260507024014 | 62 | 269 | 5.0 | 11.0 | 0.00 | 0.00 | 0.00 | 85 | 1016.4 |
| 20260507023520 | 62 | 230 | 4.0 | 10.0 | 0.00 | 0.00 | 0.00 | 84 | 1016.3 |
| 20260507023029 | 62 | 260 | 2.0 | 9.0 | 0.00 | 0.00 | 0.00 | 84 | 1016.3 |
| 20260507022516 | 63 | 244 | 2.0 | 9.0 | 0.00 | 0.00 | 0.00 | 83 | 1016.3 |
| 20260507022013 | 63 | 238 | 4.0 | 9.0 | 0.00 | 0.00 | 0.00 | 82 | 1016.3 |
| 20260507021530 | 63 | 286 | 2.0 | 12.0 | 0.00 | 0.00 | 0.00 | 83 | 1016.2 |
| 20260507021015 | 63 | 238 | 2.0 | 12.0 | 0.00 | 0.00 | 0.00 | 83 | 1016.2 |
| 20260507020513 | 63 | 273 | 3.0 | 11.0 | 0.00 | 0.00 | 0.00 | 83 | 1016.2 |
| 20260507020030 | 63 | 240 | 3.0 | 12.0 | 0.00 | 0.00 | 0.00 | 83 | 1016.2 |
| 20260507015512 | 63 | 200 | 5.0 | 12.0 | 0.00 | 0.00 | 0.00 | 83 | 1016.2 |
| 20260507015012 | 63 | 268 | 5.0 | 13.0 | 0.00 | 0.00 | 0.00 | 83 | 1016.2 |
| 20260507014540 | 64 | 232 | 5.0 | 13.0 | 0.00 | 0.00 | 0.00 | 82 | 1016.2 |
| 20260507014014 | 64 | 269 | 4.0 | 13.0 | 0.00 | 0.00 | 0.00 | 81 | 1016.1 |
| 20260507013518 | 64 | 274 | 5.0 | 14.0 | 0.00 | 0.00 | 0.00 | 81 | 1016.1 |
| 20260507013029 | 64 | 233 | 6.0 | 14.0 | 0.00 | 0.00 | 0.00 | 81 | 1016.1 |
| 20260507012512 | 64 | 262 | 6.0 | 14.0 | 0.00 | 0.00 | 0.00 | 81 | 1016.1 |
| 20260507012012 | 64 | 253 | 5.0 | 12.0 | 0.00 | 0.00 | 0.00 | 81 | 1016.1 |
| 20260507011532 | 65 | 282 | 5.0 | 12.0 | 0.00 | 0.00 | 0.00 | 81 | 1016.0 |
| 20260507011012 | 65 | 248 | 5.0 | 13.0 | 0.00 | 0.00 | 0.00 | 80 | 1016.1 |
| 20260507010515 | 64 | 250 | 4.0 | 13.0 | 0.00 | 0.00 | 0.00 | 81 | 1016.0 |
| 20260507010029 | 64 | 263 | 6.0 | 13.0 | 0.00 | 0.00 | 0.00 | 80 | 1016.0 |
| 20260507005513 | 65 | 217 | 5.0 | 17.0 | 0.00 | 0.00 | 0.00 | 81 | 1016.1 |
| 20260507005013 | 65 | 262 | 6.0 | 17.0 | 0.00 | 0.00 | 0.00 | 81 | 1016.0 |
| 20260507004536 | 65 | 254 | 6.0 | 14.0 | 0.00 | 0.00 | 0.00 | 81 | 1015.9 |
| 20260507004013 | 64 | 269 | 6.0 | 14.0 | 0.00 | 0.00 | 0.00 | 81 | 1016.0 |
| 20260507003514 | 64 | 268 | 7.0 | 14.0 | 0.00 | 0.00 | 0.00 | 81 | 1016.2 |
| 20260507003033 | 65 | 215 | 5.0 | 14.0 | 0.00 | 0.00 | 0.00 | 80 | 1016.1 |
| 20260507002513 | 65 | 234 | 6.0 | 14.0 | 0.00 | 0.00 | 0.00 | 81 | 1016.0 |
| 20260507002016 | 65 | 267 | 5.0 | 12.0 | 0.00 | 0.00 | 0.00 | 81 | 1016.1 |
| 20260507001531 | 65 | 265 | 5.0 | 20.0 | 0.00 | 0.00 | 0.00 | 80 | 1016.1 |
| 20260507001012 | 65 | 236 | 7.0 | 20.0 | 0.00 | 0.00 | 0.00 | 81 | 1016.0 |
| 20260507000512 | 65 | 263 | 5.0 | 15.0 | 0.00 | 0.00 | 0.00 | 80 | 1016.0 |
| 20260507000031 | 65 | 271 | 7.0 | 15.0 | 0.00 | 0.00 | 0.00 | 79 | 1016.1 |
| 20260506235511 | 66 | 237 | 5.0 | 13.0 | 0.00 | 0.00 | 0.00 | 79 | 1016.1 |
| 20260506235012 | 66 | 265 | 7.0 | 13.0 | 0.00 | 0.00 | 0.00 | 78 | 1016.1 |
| 20260506234537 | 67 | 231 | 5.0 | 14.0 | 0.00 | 0.00 | 0.00 | 78 | 1016.1 |
| 20260506234013 | 67 | 219 | 7.0 | 14.0 | 0.00 | 0.00 | 0.00 | 77 | 1016.1 |
| 20260506233513 | 67 | 258 | 4.0 | 15.0 | 0.00 | 0.00 | 0.00 | 77 | 1016.2 |
| 20260506233030 | 66 | 263 | 8.0 | 15.0 | 0.00 | 0.00 | 0.00 | 76 | 1016.1 |
| 20260506232512 | 67 | 211 | 6.0 | 13.0 | 0.00 | 0.00 | 0.00 | 75 | 1016.1 |
| 20260506232013 | 67 | 301 | 6.0 | 15.0 | 0.00 | 0.00 | 0.00 | 75 | 1016.2 |
| 20260506231544 | 67 | 269 | 6.0 | 15.0 | 0.00 | 0.00 | 0.00 | 75 | 1016.2 |
| 20260506231013 | 67 | 263 | 4.0 | 13.0 | 0.00 | 0.00 | 0.00 | 74 | 1016.2 |
| 20260506230512 | 67 | 218 | 5.0 | 14.0 | 0.00 | 0.00 | 0.00 | 75 | 1016.3 |
| 20260506230037 | 67 | 302 | 8.0 | 15.0 | 0.00 | 0.00 | 0.00 | 74 | 1016.3 |
| 20260506225512 | 67 | 244 | 5.0 | 16.0 | 0.00 | 0.00 | 0.00 | 75 | 1016.3 |
| 20260506225012 | 66 | 290 | 6.0 | 16.0 | 0.00 | 0.00 | 0.00 | 75 | 1016.4 |
| 20260506224530 | 67 | 230 | 7.0 | 16.0 | 0.00 | 0.00 | 0.00 | 75 | 1016.4 |
| 20260506224012 | 67 | 205 | 6.0 | 14.0 | 0.00 | 0.00 | 0.00 | 74 | 1016.5 |
| 20260506223513 | 67 | 221 | 5.0 | 14.0 | 0.00 | 0.00 | 0.00 | 74 | 1016.6 |
| 20260506223044 | 67 | 235 | 7.0 | 14.0 | 0.00 | 0.00 | 0.00 | 74 | 1016.6 |
| 20260506222514 | 67 | 225 | 6.0 | 14.0 | 0.00 | 0.00 | 0.00 | 73 | 1016.7 |
| 20260506222010 | 67 | 267 | 6.0 | 16.0 | 0.00 | 0.00 | 0.00 | 74 | 1016.7 |
| 20260506221528 | 67 | 264 | 6.0 | 16.0 | 0.00 | 0.00 | 0.00 | 74 | 1016.7 |
| 20260506221014 | 67 | 277 | 5.0 | 14.0 | 0.00 | 0.00 | 0.00 | 75 | 1016.8 |
| 20260506220514 | 67 | 244 | 6.0 | 14.0 | 0.00 | 0.00 | 0.00 | 74 | 1016.9 |
| 20260506220031 | 67 | 279 | 5.0 | 16.0 | 0.00 | 0.00 | 0.00 | 75 | 1017.0 |
| 20260506215516 | 67 | 232 | 7.0 | 16.0 | 0.00 | 0.00 | 0.00 | 75 | 1017.0 |
| 20260506215011 | 67 | 273 | 6.0 | 15.0 | 0.00 | 0.00 | 0.00 | 74 | 1017.1 |
| 20260506214532 | 68 | 207 | 6.0 | 14.0 | 0.00 | 0.00 | 0.00 | 74 | 1017.2 |
| 20260506214014 | 67 | 304 | 5.0 | 14.0 | 0.00 | 0.00 | 0.00 | 76 | 1017.2 |
| 20260506213516 | 67 | 259 | 7.0 | 15.0 | 0.00 | 0.00 | 0.00 | 74 | 1017.3 |
| 20260506213031 | 67 | 264 | 7.0 | 15.0 | 0.00 | 0.00 | 0.00 | 75 | 1017.3 |
| 20260506212512 | 67 | 239 | 8.0 | 15.0 | 0.00 | 0.00 | 0.00 | 74 | 1017.3 |
| 20260506212013 | 67 | 246 | 6.0 | 13.0 | 0.00 | 0.00 | 0.00 | 74 | 1017.4 |
| 20260506211539 | 67 | 257 | 5.0 | 13.0 | 0.00 | 0.00 | 0.00 | 75 | 1017.5 |
| 20260506211010 | 67 | 282 | 7.0 | 14.0 | 0.00 | 0.00 | 0.00 | 74 | 1017.5 |
| 20260506210512 | 67 | 239 | 7.0 | 14.0 | 0.00 | 0.00 | 0.00 | 76 | 1017.5 |
| 20260506210035 | 67 | 254 | 6.0 | 14.0 | 0.00 | 0.00 | 0.00 | 74 | 1017.5 |
| 20260506205511 | 68 | 249 | 5.0 | 14.0 | 0.00 | 0.00 | 0.00 | 74 | 1017.6 |
| 20260506205013 | 67 | 234 | 6.0 | 15.0 | 0.00 | 0.00 | 0.00 | 73 | 1017.6 |
| 20260506204531 | 67 | 290 | 6.0 | 15.0 | 0.00 | 0.00 | 0.00 | 72 | 1017.6 |
| 20260506204013 | 67 | 300 | 6.0 | 15.0 | 0.00 | 0.00 | 0.00 | 72 | 1017.6 |
| 20260506203511 | 67 | 269 | 7.0 | 12.0 | 0.00 | 0.00 | 0.00 | 70 | 1017.7 |
| 20260506203032 | 68 | 211 | 5.0 | 15.0 | 0.00 | 0.00 | 0.00 | 71 | 1017.7 |
| 20260506202513 | 68 | 292 | 6.0 | 15.0 | 0.00 | 0.00 | 0.00 | 70 | 1017.7 |
| 20260506202014 | 68 | 277 | 8.0 | 13.0 | 0.00 | 0.00 | 0.00 | 69 | 1017.6 |
| 20260506201535 | 68 | 277 | 6.0 | 13.0 | 0.00 | 0.00 | 0.00 | 68 | 1017.8 |
| 20260506201014 | 68 | 254 | 6.0 | 13.0 | 0.00 | 0.00 | 0.00 | 69 | 1017.8 |
| 20260506200512 | 68 | 231 | 6.0 | 12.0 | 0.00 | 0.00 | 0.00 | 69 | 1017.8 |
| 20260506200030 | 68 | 262 | 5.0 | 12.0 | 0.00 | 0.00 | 0.00 | 70 | 1017.8 |
| 20260506195512 | 68 | 244 | 6.0 | 14.0 | 0.00 | 0.00 | 0.00 | 70 | 1017.8 |
| 20260506195014 | 68 | 243 | 8.0 | 14.0 | 0.00 | 0.00 | 0.00 | 70 | 1017.9 |
| 20260506194531 | 68 | 246 | 6.0 | 15.0 | 0.00 | 0.00 | 0.00 | 70 | 1017.9 |
| 20260506194012 | 67 | 222 | 7.0 | 15.0 | 0.00 | 0.00 | 0.00 | 69 | 1018.0 |
| 20260506193513 | 68 | 258 | 5.0 | 14.0 | 0.00 | 0.00 | 0.00 | 70 | 1018.0 |
| 20260506193036 | 68 | 258 | 7.0 | 14.0 | 0.00 | 0.00 | 0.00 | 70 | 1018.0 |
| 20260506192512 | 68 | 259 | 6.0 | 12.0 | 0.00 | 0.00 | 0.00 | 69 | 1018.1 |
| 20260506192011 | 68 | 234 | 5.0 | 12.0 | 0.00 | 0.00 | 0.00 | 70 | 1018.1 |
| 20260506191530 | 68 | 240 | 6.0 | 13.0 | 0.00 | 0.00 | 0.00 | 70 | 1018.2 |
| 20260506191016 | 68 | 201 | 4.0 | 13.0 | 0.00 | 0.00 | 0.00 | 70 | 1018.3 |
| 20260506190516 | 68 | 232 | 6.0 | 12.0 | 0.00 | 0.00 | 0.00 | 69 | 1018.3 |
| 20260506190031 | 68 | 244 | 4.0 | 12.0 | 0.00 | 0.00 | 0.00 | 70 | 1018.2 |
| 20260506185513 | 68 | 211 | 6.0 | 12.0 | 0.00 | 0.00 | 0.00 | 70 | 1018.2 |
| 20260506185018 | 67 | 267 | 5.0 | 12.0 | 0.00 | 0.00 | 0.00 | 70 | 1018.4 |
| 20260506184531 | 68 | 229 | 6.0 | 12.0 | 0.00 | 0.00 | 0.00 | 70 | 1018.4 |
| 20260506184016 | 68 | 263 | 4.0 | 11.0 | 0.00 | 0.00 | 0.00 | 69 | 1018.4 |
| 20260506183514 | 68 | 268 | 3.0 | 11.0 | 0.00 | 0.00 | 0.00 | 70 | 1018.4 |
| 20260506183041 | 68 | 213 | 5.0 | 11.0 | 0.00 | 0.00 | 0.00 | 70 | 1018.4 |
| 20260506182512 | 68 | 263 | 3.0 | 10.0 | 0.00 | 0.00 | 0.00 | 69 | 1018.4 |
| 20260506182012 | 67 | 259 | 2.0 | 10.0 | 0.00 | 0.00 | 0.00 | 70 | 1018.4 |
| 20260506181532 | 67 | 273 | 4.0 | 10.0 | 0.00 | 0.00 | 0.00 | 71 | 1018.5 |
| 20260506181014 | 67 | 288 | 5.0 | 9.0 | 0.00 | 0.00 | 0.00 | 71 | 1018.5 |
| 20260506180514 | 67 | 261 | 4.0 | 10.0 | 0.00 | 0.00 | 0.00 | 72 | 1018.5 |
| 20260506180030 | 67 | 267 | 4.0 | 10.0 | 0.00 | 0.00 | 0.00 | 72 | 1018.5 |
| 20260506175517 | 66 | 226 | 5.0 | 10.0 | 0.00 | 0.00 | 0.00 | 73 | 1018.6 |
| 20260506175013 | 66 | 273 | 5.0 | 10.0 | 0.00 | 0.00 | 0.00 | 73 | 1018.6 |
| 20260506174531 | 67 | 274 | 3.0 | 9.0 | 0.00 | 0.00 | 0.00 | 73 | 1018.5 |
| 20260506174013 | 66 | 265 | 2.0 | 9.0 | 0.00 | 0.00 | 0.00 | 75 | 1018.5 |
| 20260506173513 | 66 | 0 | 3.0 | 9.0 | 0.00 | 0.00 | 0.00 | 75 | 1018.4 |
| 20260506173031 | 66 | 234 | 3.0 | 10.0 | 0.00 | 0.00 | 0.00 | 75 | 1018.5 |
| 20260506172513 | 66 | 245 | 3.0 | 10.0 | 0.00 | 0.00 | 0.00 | 75 | 1018.5 |
| 20260506172014 | 65 | 192 | 3.0 | 9.0 | 0.00 | 0.00 | 0.00 | 75 | 1018.5 |
| 20260506171533 | 66 | 257 | 4.0 | 9.0 | 0.00 | 0.00 | 0.00 | 73 | 1018.5 |
| 20260506171017 | 66 | 225 | 3.0 | 10.0 | 0.00 | 0.00 | 0.00 | 73 | 1018.5 |
| 20260506170515 | 66 | 258 | 3.0 | 10.0 | 0.00 | 0.00 | 0.00 | 72 | 1018.5 |
| 20260506170036 | 67 | 237 | 4.0 | 8.0 | 0.00 | 0.00 | 0.00 | 72 | 1018.4 |
| 20260506165514 | 67 | 240 | 2.0 | 7.0 | 0.00 | 0.00 | 0.00 | 71 | 1018.3 |
| 20260506165014 | 68 | 194 | 1.0 | 5.0 | 0.00 | 0.00 | 0.00 | 70 | 1018.3 |
| 20260506164531 | 68 | 0 | 1.0 | 5.0 | 0.00 | 0.00 | 0.00 | 66 | 1018.4 |
| 20260506164016 | 68 | 0 | 1.0 | 4.0 | 0.00 | 0.00 | 0.00 | 67 | 1018.4 |
| 20260506163513 | 67 | 89 | 1.0 | 4.0 | 0.00 | 0.00 | 0.00 | 68 | 1018.4 |
| 20260506163030 | 67 | 306 | 1.0 | 4.0 | 0.00 | 0.00 | 0.00 | 68 | 1018.3 |
| 20260506162513 | 67 | 38 | 1.0 | 4.0 | 0.00 | 0.00 | 0.00 | 68 | 1018.3 |
| 20260506162018 | 67 | 98 | 1.0 | 6.0 | 0.00 | 0.00 | 0.00 | 68 | 1018.4 |
| 20260506161533 | 66 | 111 | 0.0 | 7.0 | 0.00 | 0.00 | 0.00 | 69 | 1018.4 |
| 20260506161012 | 66 | 95 | 2.0 | 7.0 | 0.00 | 0.00 | 0.00 | 70 | 1018.3 |
| 20260506160510 | 66 | 53 | 2.0 | 6.0 | 0.00 | 0.00 | 0.00 | 71 | 1018.3 |
| 20260506160028 | 66 | 80 | 0.0 | 6.0 | 0.00 | 0.00 | 0.00 | 71 | 1018.3 |
| 20260506155511 | 66 | 106 | 2.0 | 6.0 | 0.00 | 0.00 | 0.00 | 73 | 1018.4 |
| 20260506155013 | 66 | 77 | 1.0 | 4.0 | 0.00 | 0.00 | 0.00 | 74 | 1018.3 |
| 20260506154534 | 65 | 61 | 1.0 | 6.0 | 0.00 | 0.00 | 0.00 | 76 | 1018.4 |
| 20260506154013 | 65 | 113 | 2.0 | 6.0 | 0.00 | 0.00 | 0.00 | 77 | 1018.4 |
| 20260506153513 | 65 | 134 | 2.0 | 4.0 | 0.00 | 0.00 | 0.00 | 77 | 1018.3 |
| 20260506153029 | 65 | 50 | 1.0 | 6.0 | 0.00 | 0.00 | 0.00 | 78 | 1018.4 |
| 20260506152513 | 64 | 113 | 1.0 | 6.0 | 0.00 | 0.00 | 0.00 | 79 | 1018.4 |
| 20260506152015 | 64 | 0 | 0.0 | 4.0 | 0.00 | 0.00 | 0.00 | 79 | 1018.4 |
| 20260506151533 | 64 | 63 | 1.0 | 4.0 | 0.00 | 0.00 | 0.00 | 80 | 1018.4 |
| 20260506151010 | 63 | 0 | 0.0 | 4.0 | 0.00 | 0.00 | 0.00 | 81 | 1018.5 |
| 20260506150514 | 63 | 65 | 1.0 | 3.0 | 0.00 | 0.00 | 0.00 | 81 | 1018.5 |
| 20260506150030 | 63 | 13 | 1.0 | 3.0 | 0.00 | 0.00 | 0.00 | 81 | 1018.5 |
| 20260506145514 | 62 | 86 | 0.0 | 3.0 | 0.00 | 0.00 | 0.00 | 82 | 1018.4 |
| 20260506145013 | 62 | 0 | 1.0 | 3.0 | 0.00 | 0.00 | 0.00 | 82 | 1018.4 |
| 20260506144536 | 62 | 0 | 1.0 | 3.0 | 0.00 | 0.00 | 0.00 | 82 | 1018.4 |
| 20260506144014 | 61 | 43 | 0.0 | 2.0 | 0.00 | 0.00 | 0.00 | 82 | 1018.4 |
| 20260506143514 | 61 | 5 | 0.0 | 2.0 | 0.00 | 0.00 | 0.00 | 83 | 1018.3 |
| 20260506143034 | 60 | 0 | 0.0 | 0.0 | 0.00 | 0.00 | 0.00 | 84 | 1018.3 |
| 20260506142511 | 59 | 0 | 0.0 | 0.0 | 0.00 | 0.00 | 0.00 | 86 | 1018.3 |
| 20260506142012 | 58 | 0 | 0.0 | 0.0 | 0.00 | 0.00 | 0.00 | 88 | 1018.3 |
| 20260506141533 | 57 | 0 | 0.0 | 0.0 | 0.00 | 0.00 | 0.00 | 90 | 1018.2 |
| 20260506141010 | 56 | 0 | 0.0 | 0.0 | 0.00 | 0.00 | 0.00 | 91 | 1018.2 |
| 20260506140511 | 56 | 0 | 0.0 | 0.0 | 0.00 | 0.00 | 0.00 | 91 | 1018.2 |
| 20260506140032 | 55 | 0 | 0.0 | 0.0 | 0.00 | 0.00 | 0.00 | 93 | 1018.2 |
| 20260506135515 | 54 | 0 | 0.0 | 0.0 | 0.00 | 0.00 | 0.00 | 94 | 1018.2 |
| 20260506135013 | 53 | 0 | 0.0 | 0.0 | 0.00 | 0.00 | 0.00 | 94 | 1018.1 |
| 20260506134528 | 52 | 0 | 0.0 | 0.0 | 0.00 | 0.00 | 0.00 | 93 | 1018.1 |
| 20260506134014 | 52 | 0 | 0.0 | 0.0 | 0.00 | 0.00 | 0.00 | 93 | 1018.1 |
| 20260506133514 | 52 | 0 | 0.0 | 0.0 | 0.00 | 0.00 | 0.00 | 93 | 1018.0 |
| 20260506133032 | 51 | 0 | 0.0 | 0.0 | 0.00 | 0.00 | 0.00 | 93 | 1018.1 |
| 20260506132514 | 51 | 0 | 0.0 | 0.0 | 0.00 | 0.00 | 0.00 | 92 | 1018.0 |
| 20260506132015 | 51 | 0 | 0.0 | 0.0 | 0.00 | 0.00 | 0.00 | 92 | 1018.0 |
| 20260506131534 | 51 | 0 | 0.0 | 0.0 | 0.00 | 0.00 | 0.00 | 92 | 1017.9 |
| 20260506131013 | 51 | 0 | 0.0 | 0.0 | 0.00 | 0.00 | 0.00 | 92 | 1017.8 |
| 20260506130517 | 51 | 0 | 0.0 | 0.0 | 0.00 | 0.00 | 0.00 | 92 | 1017.7 |
| 20260506130030 | 51 | 0 | 0.0 | 0.0 | 0.00 | 0.00 | 0.00 | 92 | 1017.7 |
| 20260506125515 | 51 | 0 | 0.0 | 0.0 | 0.00 | 0.00 | 0.00 | 92 | 1017.6 |
| 20260506125013 | 51 | 0 | 0.0 | 0.0 | 0.00 | 0.00 | 0.00 | 92 | 1017.7 |
| 20260506124530 | 51 | 0 | 0.0 | 0.0 | 0.00 | 0.00 | 0.00 | 91 | 1017.6 |
| 20260506124010 | 51 | 0 | 0.0 | 0.0 | 0.00 | 0.00 | 0.00 | 91 | 1017.5 |
| 20260506123513 | 51 | 0 | 0.0 | 0.0 | 0.00 | 0.00 | 0.00 | 91 | 1017.5 |
| 20260506123033 | 51 | 0 | 0.0 | 0.0 | 0.00 | 0.00 | 0.00 | 91 | 1017.5 |
| 20260506122513 | 52 | 0 | 0.0 | 0.0 | 0.00 | 0.00 | 0.00 | 91 | 1017.4 |
| 20260506122017 | 52 | 0 | 0.0 | 0.0 | 0.00 | 0.00 | 0.00 | 91 | 1017.4 |
| 20260506121530 | 52 | 0 | 0.0 | 0.0 | 0.00 | 0.00 | 0.00 | 91 | 1017.4 |
| 20260506121014 | 52 | 0 | 0.0 | 0.0 | 0.00 | 0.00 | 0.00 | 91 | 1017.5 |
| 20260506120513 | 52 | 0 | 0.0 | 0.0 | 0.00 | 0.00 | 0.00 | 91 | 1017.4 |
| 20260506120040 | 52 | 0 | 0.0 | 0.0 | 0.00 | 0.00 | 0.00 | 91 | 1017.4 |
| 20260506115514 | 52 | 0 | 0.0 | 0.0 | 0.00 | 0.00 | 0.00 | 91 | 1017.4 |
| 20260506115014 | 52 | 0 | 0.0 | 0.0 | 0.00 | 0.00 | 0.00 | 91 | 1017.4 |
| 20260506114532 | 52 | 0 | 0.0 | 0.0 | 0.00 | 0.00 | 0.00 | 91 | 1017.4 |
| 20260506114013 | 52 | 0 | 0.0 | 0.0 | 0.00 | 0.00 | 0.00 | 91 | 1017.4 |
| 20260506113511 | 52 | 0 | 0.0 | 0.0 | 0.00 | 0.00 | 0.00 | 91 | 1017.3 |
| 20260506113034 | 52 | 0 | 0.0 | 0.0 | 0.00 | 0.00 | 0.00 | 91 | 1017.3 |
| 20260506112512 | 53 | 0 | 0.0 | 0.0 | 0.00 | 0.00 | 0.00 | 91 | 1017.3 |
| 20260506112016 | 53 | 0 | 0.0 | 0.0 | 0.00 | 0.00 | 0.00 | 91 | 1017.3 |
| 20260506111529 | 53 | 0 | 0.0 | 0.0 | 0.00 | 0.00 | 0.00 | 90 | 1017.3 |
| 20260506111017 | 53 | 0 | 0.0 | 0.0 | 0.00 | 0.00 | 0.00 | 91 | 1017.4 |
| 20260506110513 | 53 | 0 | 0.0 | 0.0 | 0.00 | 0.00 | 0.00 | 91 | 1017.3 |
| 20260506110032 | 53 | 0 | 0.0 | 0.0 | 0.00 | 0.00 | 0.00 | 91 | 1017.3 |
| 20260506105511 | 53 | 0 | 0.0 | 0.0 | 0.00 | 0.00 | 0.00 | 91 | 1017.3 |
| 20260506105012 | 53 | 0 | 0.0 | 0.0 | 0.00 | 0.00 | 0.00 | 91 | 1017.3 |
| 20260506104532 | 53 | 0 | 0.0 | 0.0 | 0.00 | 0.00 | 0.00 | 91 | 1017.3 |
| 20260506104013 | 53 | 0 | 0.0 | 0.0 | 0.00 | 0.00 | 0.00 | 91 | 1017.4 |
| 20260506103511 | 53 | 0 | 0.0 | 0.0 | 0.00 | 0.00 | 0.00 | 90 | 1017.4 |
| 20260506103035 | 53 | 0 | 0.0 | 0.0 | 0.00 | 0.00 | 0.00 | 90 | 1017.2 |
| 20260506102514 | 53 | 0 | 0.0 | 0.0 | 0.00 | 0.00 | 0.00 | 90 | 1017.2 |
| 20260506102014 | 53 | 0 | 0.0 | 0.0 | 0.00 | 0.00 | 0.00 | 90 | 1017.3 |
| 20260506101532 | 53 | 0 | 0.0 | 0.0 | 0.00 | 0.00 | 0.00 | 90 | 1017.2 |
| 20260506101013 | 53 | 0 | 0.0 | 0.0 | 0.00 | 0.00 | 0.00 | 90 | 1017.2 |
| 20260506100513 | 53 | 0 | 0.0 | 0.0 | 0.00 | 0.00 | 0.00 | 90 | 1017.2 |
| 20260506100030 | 54 | 0 | 0.0 | 0.0 | 0.00 | 0.00 | 0.00 | 90 | 1017.2 |
| 20260506095510 | 54 | 0 | 0.0 | 0.0 | 0.00 | 0.00 | 0.00 | 90 | 1017.2 |
| 20260506095013 | 54 | 0 | 0.0 | 0.0 | 0.00 | 0.00 | 0.00 | 90 | 1017.2 |
| 20260506094533 | 54 | 0 | 0.0 | 0.0 | 0.00 | 0.00 | 0.00 | 90 | 1017.2 |
| 20260506094011 | 54 | 0 | 0.0 | 0.0 | 0.00 | 0.00 | 0.00 | 90 | 1017.2 |
| 20260506093518 | 54 | 0 | 0.0 | 0.0 | 0.00 | 0.00 | 0.00 | 90 | 1017.2 |
| 20260506093030 | 54 | 0 | 0.0 | 0.0 | 0.00 | 0.00 | 0.00 | 90 | 1017.2 |
| 20260506092514 | 54 | 0 | 0.0 | 0.0 | 0.00 | 0.00 | 0.00 | 89 | 1017.3 |
| 20260506092015 | 54 | 0 | 0.0 | 0.0 | 0.00 | 0.00 | 0.00 | 89 | 1017.3 |
| 20260506091532 | 54 | 0 | 0.0 | 0.0 | 0.00 | 0.00 | 0.00 | 89 | 1017.3 |
| 20260506091016 | 54 | 0 | 0.0 | 0.0 | 0.00 | 0.00 | 0.00 | 89 | 1017.3 |
| 20260506090513 | 54 | 0 | 0.0 | 0.0 | 0.00 | 0.00 | 0.00 | 89 | 1017.4 |
| 20260506090043 | 54 | 0 | 0.0 | 0.0 | 0.00 | 0.00 | 0.00 | 88 | 1017.4 |
| 20260506085515 | 54 | 0 | 0.0 | 0.0 | 0.00 | 0.00 | 0.00 | 89 | 1017.4 |
| 20260506085013 | 54 | 0 | 0.0 | 0.0 | 0.00 | 0.00 | 0.00 | 89 | 1017.5 |
| 20260506084530 | 54 | 0 | 0.0 | 0.0 | 0.00 | 0.00 | 0.00 | 88 | 1017.6 |
| 20260506084015 | 54 | 0 | 0.0 | 0.0 | 0.00 | 0.00 | 0.00 | 87 | 1017.6 |
| 20260506083513 | 54 | 0 | 0.0 | 0.0 | 0.00 | 0.00 | 0.00 | 87 | 1017.7 |
| 20260506083032 | 55 | 0 | 0.0 | 0.0 | 0.00 | 0.00 | 0.00 | 87 | 1017.6 |
| 20260506082514 | 55 | 0 | 0.0 | 0.0 | 0.00 | 0.00 | 0.00 | 87 | 1017.6 |
| 20260506082014 | 55 | 0 | 0.0 | 0.0 | 0.00 | 0.00 | 0.00 | 86 | 1017.6 |
| 20260506081533 | 55 | 0 | 0.0 | 0.0 | 0.00 | 0.00 | 0.00 | 86 | 1017.7 |
| 20260506081014 | 55 | 0 | 0.0 | 0.0 | 0.00 | 0.00 | 0.00 | 87 | 1017.7 |
| 20260506080514 | 55 | 0 | 0.0 | 0.0 | 0.00 | 0.00 | 0.00 | 87 | 1017.7 |
| 20260506073513 | 56 | 0 | 0.0 | 0.0 | 0.00 | 0.00 | 0.00 | 86 | 1017.8 |
| 20260506073030 | 56 | 0 | 0.0 | 0.0 | 0.00 | 0.00 | 0.00 | 86 | 1017.7 |
| 20260506072514 | 56 | 0 | 0.0 | 0.0 | 0.00 | 0.00 | 0.00 | 86 | 1017.7 |
| 20260506072013 | 56 | 0 | 0.0 | 0.0 | 0.00 | 0.00 | 0.00 | 86 | 1017.6 |
| 20260506071530 | 56 | 0 | 0.0 | 0.0 | 0.00 | 0.00 | 0.00 | 86 | 1017.5 |
| 20260506071013 | 56 | 0 | 0.0 | 0.0 | 0.00 | 0.00 | 0.00 | 85 | 1017.5 |
| 20260506070514 | 56 | 0 | 0.0 | 0.0 | 0.00 | 0.00 | 0.00 | 85 | 1017.4 |
| 20260506062511 | 57 | 0 | 0.0 | 0.0 | 0.00 | 0.00 | 0.00 | 84 | 1017.2 |
| 20260506062014 | 57 | 0 | 0.0 | 0.0 | 0.00 | 0.00 | 0.00 | 84 | 1017.2 |
| 20260506061546 | 57 | 0 | 0.0 | 0.0 | 0.00 | 0.00 | 0.00 | 84 | 1017.2 |
| 20260506061015 | 57 | 0 | 0.0 | 0.0 | 0.00 | 0.00 | 0.00 | 84 | 1017.2 |
| 20260506060514 | 57 | 0 | 0.0 | 0.0 | 0.00 | 0.00 | 0.00 | 84 | 1017.1 |
| 20260506051013 | 58 | 0 | 0.0 | 0.0 | 0.00 | 0.00 | 0.00 | 85 | 1016.7 |
| 20260506050520 | 58 | 0 | 0.0 | 0.0 | 0.00 | 0.00 | 0.00 | 84 | 1016.6 |
| 20260506045015 | 59 | 0 | 0.0 | 0.0 | 0.00 | 0.00 | 0.00 | 84 | 1016.4 |
| 20260506044543 | 59 | 0 | 0.0 | 0.0 | 0.00 | 0.00 | 0.00 | 84 | 1016.4 |
| 20260506044014 | 59 | 0 | 0.0 | 0.0 | 0.00 | 0.00 | 0.00 | 84 | 1016.3 |
| 20260506043511 | 59 | 0 | 0.0 | 0.0 | 0.00 | 0.00 | 0.00 | 84 | 1016.3 |
| 20260506043038 | 59 | 0 | 0.0 | 2.0 | 0.00 | 0.00 | 0.00 | 84 | 1016.3 |
| 20260506042514 | 60 | 0 | 0.0 | 2.0 | 0.00 | 0.00 | 0.00 | 84 | 1016.3 |
| 20260506042014 | 60 | 270 | 0.0 | 2.0 | 0.00 | 0.00 | 0.00 | 84 | 1016.2 |
| 20260506041534 | 60 | 0 | 0.0 | 3.0 | 0.00 | 0.00 | 0.00 | 84 | 1016.3 |
| 20260506041013 | 60 | 0 | 0.0 | 3.0 | 0.00 | 0.00 | 0.00 | 84 | 1016.1 |
| 20260506040513 | 60 | 267 | 1.0 | 3.0 | 0.00 | 0.00 | 0.00 | 84 | 1016.1 |
| 20260506040032 | 60 | 236 | 0.0 | 4.0 | 0.00 | 0.00 | 0.00 | 83 | 1016.0 |
| 20260506035514 | 60 | 220 | 1.0 | 4.0 | 0.00 | 0.00 | 0.00 | 84 | 1016.0 |
| 20260506035016 | 60 | 0 | 0.0 | 3.0 | 0.00 | 0.00 | 0.00 | 84 | 1015.9 |
| 20260506034533 | 60 | 0 | 1.0 | 3.0 | 0.00 | 0.00 | 0.00 | 84 | 1015.7 |
| 20260506034014 | 60 | 231 | 0.0 | 4.0 | 0.00 | 0.00 | 0.00 | 83 | 1015.6 |
| 20260506033514 | 60 | 0 | 1.0 | 4.0 | 0.00 | 0.00 | 0.00 | 83 | 1015.6 |
| 20260506033033 | 60 | 250 | 1.0 | 4.0 | 0.00 | 0.00 | 0.00 | 83 | 1015.6 |
| 20260506032514 | 60 | 249 | 1.0 | 5.0 | 0.00 | 0.00 | 0.00 | 83 | 1015.5 |
| 20260506032014 | 60 | 247 | 1.0 | 7.0 | 0.00 | 0.00 | 0.00 | 83 | 1015.5 |
| 20260506031543 | 60 | 271 | 2.0 | 7.0 | 0.00 | 0.00 | 0.00 | 82 | 1015.4 |
| 20260506031014 | 60 | 242 | 2.0 | 7.0 | 0.00 | 0.00 | 0.00 | 82 | 1015.4 |
| 20260506030514 | 60 | 224 | 2.0 | 5.0 | 0.00 | 0.00 | 0.00 | 83 | 1015.3 |
| 20260506030032 | 60 | 240 | 1.0 | 5.0 | 0.00 | 0.00 | 0.00 | 82 | 1015.3 |